Weather History for Bolton Field, OH

Change the Weather History Date:

Sunday, February 3, 2013

  Actual Average Record
Temperature  
Mean Temperature 22 °F -  
Max Temperature 25 °F 37 °F 55 °F (2003)
Min Temperature 16 °F 24 °F 6 °F (2007)
Degree Days  
Heating Degree Days 44    
Moisture  
Dew Point 18 °F    
Average Humidity 84    
Maximum Humidity 95    
Minimum Humidity 68    
Precipitation  
Precipitation 0.00 in - - ()
Sea Level Pressure  
Sea Level Pressure 29.97 in    
Wind  
Wind Speed 5 mph (WSW)    
Max Wind Speed 15 mph    
Max Gust Speed 20 mph    
Visibility 7 miles    
Events Snow    
Averages and records for this station are not official NWS values.
T = Trace of Precipitation, MM = Missing Value Source: NWS Daily Summary

Daily Weather History Graph

Daily Weather History Graph

Search for Another Location

Airport:

Trip Planner

Search our weather history database for the weather conditions in past years. The results will help you decide how hot, cold, wet, or windy it might be!

Date:

Astronomy

Feb. 03, 2013 Rise Set
Actual Time 7:38 AM EST 5:54 PM EST
Civil Twilight 7:10 AM EST 6:23 PM EST
Nautical Twilight 6:38 AM EST 6:55 PM EST
Astronomical Twilight 6:06 AM EST 7:27 PM EST
Moon 1:04 AM EST (2/3) 11:31 AM EST (2/3)
Length of Visible Light 11h 12m
Length of Day
10h 16m
Waning Gibbous, 49% of the Moon is Illuminated
Feb 3
Waning Gibbous
Feb 10
New
Feb 17
First Quarter
Feb 25
Full
Mar 4
Last Quarter

Hourly Weather History & Observations

Time (EST) Temp. Windchill Dew Point Humidity Pressure Visibility Wind Dir Wind Speed Gust Speed Precip Events Conditions
12:15 AM 25.5 °F 19.9 °F 22.6 °F 89% 29.98 in 5.0 mi West 4.6 mph - N/A Snow Light Snow
12:35 AM 25.5 °F 21.3 °F 22.1 °F 87% 29.98 in 10.0 mi West 3.5 mph - N/A Snow Light Snow
12:55 AM 25.5 °F 19.9 °F 21.6 °F 85% 29.97 in 7.0 mi West 4.6 mph - N/A Snow Light Snow
1:15 AM 25.2 °F 19.5 °F 21.2 °F 85% 29.97 in 10.0 mi West 4.6 mph - N/A Snow Light Snow
1:35 AM 25.2 °F 20.9 °F 21.6 °F 86% 29.96 in 10.0 mi WSW 3.5 mph - N/A Snow Light Snow
1:55 AM 24.8 °F - 21.6 °F 87% 29.96 in 7.0 mi Calm Calm - N/A Snow Light Snow
2:15 AM 24.8 °F 19.1 °F 21.6 °F 87% 29.95 in 10.0 mi WSW 4.6 mph - N/A   Overcast
2:35 AM 24.8 °F 20.5 °F 21.2 °F 86% 29.95 in 7.0 mi WSW 3.5 mph - N/A Snow Light Snow
2:55 AM 24.6 °F - 21.0 °F 86% 29.94 in 7.0 mi Calm Calm - N/A Snow Light Snow
3:15 AM 24.4 °F - 21.0 °F 87% 29.94 in 5.0 mi North - - N/A Snow Light Snow
3:35 AM 24.4 °F 20.1 °F 20.8 °F 86% 29.93 in 7.0 mi West 3.5 mph - N/A Snow Light Snow
3:55 AM 24.3 °F - 20.7 °F 86% 29.92 in 7.0 mi North - - N/A   Overcast
4:15 AM 24.1 °F - 20.7 °F 87% 29.91 in 4.0 mi Calm Calm - N/A Snow Light Snow
4:55 AM 23.2 °F 18.7 °F 21.2 °F 92% 29.91 in 2.5 mi SSW 3.5 mph - N/A Snow Light Snow
5:15 AM 23.0 °F 18.4 °F 21.6 °F 94% 29.90 in 3.0 mi SW 3.5 mph - N/A Snow Light Snow
5:35 AM 23.0 °F 18.4 °F 21.7 °F 95% 29.90 in 4.0 mi WSW 3.5 mph - N/A Snow Light Snow
5:55 AM 23.0 °F 18.4 °F 21.4 °F 94% 29.90 in 5.0 mi NW 3.5 mph - N/A Snow Light Snow
6:15 AM 22.1 °F 15.9 °F 20.3 °F 93% 29.90 in 7.0 mi NW 4.6 mph - N/A   Overcast
6:35 AM 22.1 °F 17.4 °F 19.4 °F 89% 29.89 in 7.0 mi NW 3.5 mph - N/A   Overcast
6:55 AM 22.1 °F - 19.4 °F 89% 29.89 in 7.0 mi North - - N/A   Overcast
7:15 AM 22.1 °F - 19.4 °F 89% 29.89 in 7.0 mi North - - N/A   Overcast
7:45 AM 21.2 °F 13.6 °F 19.4 °F 93% 29.90 in 7.0 mi West 5.8 mph - N/A Snow Light Snow
8:50 AM 21.2 °F 10.1 °F 17.6 °F 86% 29.91 in 5.0 mi SW 10.4 mph - N/A Snow Light Snow
9:55 AM 19.4 °F 8.6 °F 12.2 °F 74% 29.91 in 5.0 mi WSW 9.2 mph - N/A   Haze
10:50 AM 19.4 °F 7.9 °F 15.8 °F 86% 29.92 in 2.5 mi West 10.4 mph - N/A Snow Light Snow
11:50 AM 21.2 °F 10.1 °F 15.8 °F 80% 29.92 in 1.8 mi West 10.4 mph 16.1 mph N/A Snow Light Snow
12:50 PM 21.2 °F 8.9 °F 14.0 °F 74% 29.92 in 5.0 mi West 12.7 mph - N/A Snow Light Snow
2:50 PM 21.2 °F 7.8 °F 12.2 °F 68% 29.94 in 7.0 mi West 15.0 mph 19.6 mph N/A   Overcast
3:50 PM 19.4 °F 6.0 °F 10.4 °F 68% 29.98 in 10.0 mi West 13.8 mph 19.6 mph N/A   Overcast
4:47 PM 19.4 °F 7.2 °F 12.2 °F 74% 30.00 in 10.0 mi WSW 11.5 mph 17.3 mph N/A   Overcast
5:47 PM 19.4 °F 7.9 °F 12.2 °F 74% 30.01 in 10.0 mi WSW 10.4 mph 16.1 mph N/A   Overcast
6:47 PM 19.4 °F 8.6 °F 14.0 °F 80% 30.03 in 10.0 mi WSW 9.2 mph - N/A   Overcast
8:15 PM 20.7 °F 11.0 °F 14.7 °F 78% 30.05 in 10.0 mi WSW 8.1 mph - N/A   Overcast
8:35 PM 20.7 °F 13.0 °F 15.3 °F 80% 30.06 in 10.0 mi WSW 5.8 mph - N/A Snow Light Snow
8:55 PM 20.7 °F 13.0 °F 15.8 °F 81% 30.06 in 7.0 mi SW 5.8 mph - N/A Snow Light Snow
9:15 PM 20.7 °F 11.9 °F 16.2 °F 83% 30.06 in 7.0 mi SW 6.9 mph - N/A Snow Light Snow
9:35 PM 21.0 °F 12.4 °F 16.5 °F 83% 30.07 in 7.0 mi WSW 6.9 mph - N/A Snow Light Snow
9:55 PM 21.2 °F 14.9 °F 17.1 °F 84% 30.07 in 4.0 mi WSW 4.6 mph - N/A Snow Light Snow
10:15 PM 21.0 °F 16.2 °F 17.4 °F 86% 30.07 in 5.0 mi WSW 3.5 mph - N/A Snow Light Snow
10:35 PM 20.7 °F 11.9 °F 14.9 °F 78% 30.07 in 10.0 mi West 6.9 mph - N/A Snow Light Snow
10:55 PM 20.1 °F 12.3 °F 14.2 °F 78% 30.08 in 10.0 mi West 5.8 mph - N/A   Overcast
11:15 PM 19.2 °F 11.3 °F 13.1 °F 77% 30.08 in 10.0 mi West 5.8 mph - N/A   Scattered Clouds
11:35 PM 18.0 °F 11.1 °F 12.2 °F 78% 30.08 in 10.0 mi WSW 4.6 mph - N/A   Scattered Clouds
11:55 PM 16.5 °F 8.1 °F 11.3 °F 80% 30.09 in 10.0 mi SW 5.8 mph - N/A   Clear